Flag for Norway Weather past 2 weeks in Longyearbyen, Svalbard, Norway

Now
19 °F

Light snow. Scattered clouds.


Feels Like: 8 °F
Forecast: 8 / 15 °F
Wind: 10 mph from Southeast

Location: Svalbard Lufthavn

Current Time: Apr 1, 2015 at 10:38:06 AM

Latest Report: Apr 1, 2015 at 9:50 AM


Visibility: N/A

Pressure: 29.59 "Hg

Humidity: 73%

Dew point: 12 °F

Location of LongyearbyenLocation

Historic Weather in Longyearbyen — Graph

°F

Longyearbyen temperature yesterday

Maximum temperature yesterday: 21 °F (at 4:50 AM)
Minimum temperature yesterday: 18 °F (at 12:50 AM)
Average temperature yesterday: 20 °F

Past Weeks' High & Low Weather Summary

 TemperatureHumidityPressure
High37 °F (Mar 26, 12:50 PM)93% (Mar 26, 3:20 AM)30.27 "Hg (Mar 26, 3:20 AM)
Low-4 °F (Mar 21, 1:50 AM)47% (Mar 23, 9:50 AM)29.18 "Hg (Mar 28, 6:50 AM)
Average14 °F72%29.75 "Hg
* Reported Mar 17 7:50 AM — Apr 1 8:50 AM, Longyearbyen, Weather by CustomWeather, © 2015

Note: Actual official high and low records may vary slightly from our data, if they occured in-between our weather recording intervals... More about our weather records

Advertising

Longyearbyen weather history for previous 24 hours

 ConditionsComfort  
Time TempWeatherWind HumidityBarometerVisibility
8:50 AM
Wed, Apr 1
19 °FLight snow. Partly sunny.14 mph73%29.59 "HgN/A
8:20 AM19 °FScattered showers. Scattered clouds.13 mph73%29.59 "HgN/A
6:50 AM19 °FScattered clouds.17 mph68%29.56 "HgN/A
5:50 AM19 °FPassing clouds.18 mph68%29.56 "HgN/A
4:50 AM19 °FPassing clouds.16 mph68%29.56 "HgN/A
2:50 AM19 °FPassing clouds.18 mph68%29.53 "HgN/A
1:50 AM19 °FPassing clouds.20 mph68%29.53 "HgN/A
12:50 AM19 °FPassing clouds.18 mph68%29.50 "HgN/A
11:50 PM
Tue, Mar 31
19 °FPassing clouds.20 mph68%29.50 "HgN/A
10:50 PM19 °FPassing clouds.21 mph68%29.50 "HgN/A
9:50 PM19 °FPassing clouds.22 mph68%29.47 "HgN/A
8:50 PM19 °FScattered clouds.18 mph68%29.47 "HgN/A
7:50 PM21 °FPartly sunny.18 mph63%29.45 "HgN/A
6:50 PM21 °FBroken clouds.20 mph68%29.45 "HgN/A
5:50 PM21 °FBroken clouds.18 mph68%29.42 "HgN/A
4:50 PM21 °FPartly sunny.20 mph68%29.39 "HgN/A
3:50 PM19 °FPartly sunny.20 mph68%29.39 "HgN/A
3:20 PM19 °FBroken clouds.20 mph73%29.39 "HgN/A
1:50 PM21 °FBroken clouds.22 mph68%29.36 "HgN/A
12:50 PM21 °FPartly sunny.20 mph68%29.36 "HgN/A
11:50 AM21 °FPartly sunny.17 mph68%29.33 "HgN/A
10:50 AM21 °FPartly sunny.20 mph68%29.30 "HgN/A
Weather by CustomWeather, © 2015

See weather overviewHow to use our weather pages